Regional Weather Roundup
Issued by NWS

Home | Current Version | Previous Version | Graphics & Text | Print | Product List | Glossary On
Versions: 1 2 3 4 5 6 7 8 9 10 11 12 13 14 15 16 17 18 19 20 21 22 23 24 25 26 27 28 29 30 31 32 33 34 35 36 37 38 39 40 41 42 43 44 45 46 47 48 49 50
000
ASUS45 KSLC 171710
RWRUT

UTAH REGIONAL WEATHER ROUNDUP
NATIONAL WEATHER SERVICE SALT LAKE CITY UT
1000 AM MST TUE JAN 17 2017

UTZ001>011-023>025-171800-

NORTHERN UTAH

CITY           SKY/WX    TMP DP  RH WIND       PRES   REMARKS
BRIGHAM CITY     N/A     10   4  77 NW5       30.34R WCI   1
DUGWAY         CLOUDY    21  18  88 CALM      30.33  FOG
HILL AFB       SUNNY     16  10  79 E13       30.25F WCI   2
LOGAN          SUNNY      1   1 100 CALM      30.35R FOG
OGDEN          SUNNY     15   6  67 S3        30.31R
SALT LAKE CITY MOSUNNY   24  19  81 CALM      30.32R
TOOELE VALLEY  SUNNY     25  19  80 SE5       30.32R WCI  19
WENDOVER       CLOUDY    23  18  80 E5        30.32R WCI  17
HEBER CITY     SUNNY      7   3  85 CALM      30.27R
WEST JORDAN    SUNNY     23  22  96 S7        30.31R WCI  15

$$

UTZ011>015-024>027-171800-

CENTRAL/NORTHEAST UTAH

CITY           SKY/WX    TMP DP  RH WIND       PRES   REMARKS
PROVO AIRPORT  SUNNY     22  14  71 SE3       30.33R
MOAB/CANYONLAN SUNNY     33  24  69 NW7       30.21R WCI  27
DELTA          CLOUDY    19  19 100 S3        30.28R VSB<1/4
PRICE          SUNNY     24   7  48 CALM      30.19R
ROOSEVELT      CLOUDY    19  18  93 CALM      30.34R FOG
VERNAL         CLOUDY    18  15  88 SE3       30.31R

$$

UTZ013>016-019>022-027-171800-

SOUTHERN UTAH

CITY           SKY/WX    TMP DP  RH WIND       PRES   REMARKS
BRYCE CANYON   SUNNY     12  11  95 N3        30.17R
CEDAR CITY     SUNNY     23  18  81 CALM      30.20R
MILFORD        SUNNY     23  18  81 NE5       30.25R WCI  17
ST GEORGE      SUNNY     36  21  55 W3        30.25R
HANKSVILLE     SUNNY     30  27  86 MISG      30.26R
BLANDING       CLOUDY    37  28  70 CALM      30.25R

$$

REGIONAL REPORTS     COLORADO/ARIZONA

CITY           SKY/WX    TMP DP  RH WIND       PRES   REMARKS
CRAIG, CO      CLOUDY    17  14  88 CALM      30.25R FOG
GRAND JUNCTION SUNNY     32  22  66 CALM      30.23R
RIFLE, CO      CLOUDY    27  18  69 E3        30.24R
MONTROSE, CO   CLOUDY    32  27  81 SE3       30.23R
CORTEZ, CO     CLOUDY    36  34  92 E3        30.18R
COLORADO CITY    N/A     34  28  80 CALM      30.20R
PAGE, AZ       SUNNY     39  23  52 CALM      30.19
GRAND CANYON   SUNNY     34  25  69 NE12      30.15R WCI  25
KINGMAN, AZ    SUNNY     40  17  39 E5        30.15R
FLAGSTAFF, AZ  MOSUNNY   34  24  67 NE7G17    30.13R WCI  28

$$

REGIONAL REPORTS    NEVADA/IDAHO/WYOMING

CITY           SKY/WX    TMP DP  RH WIND       PRES   REMARKS
LAS VEGAS, NV  SUNNY     44  19  36 S3        30.20R
ELY, NY        MOSUNNY    5   3  91 S10       30.22R WCI -10
ELKO, NV       FLURRIES  15  10  80 NE7       30.30R WCI   5
POCATELLO, ID  CLOUDY     3  -2  79 N5        30.32S WCI  -6
BURLEY, ID     MIX PCPN  10   3  73 NE12      30.28  WCI  -5
FORT BRIDGER,    N/A     11   2  67 W6        30.18S WCI   1
EVANSTON, WY   CLOUDY    10   4  76 S3        30.17R
ROCK SPRINGS,  CLOUDY    -5 -11  75 CALM      30.18R HAZE

$$



USA.gov is the U.S. government's official web portal to all federal, state and local government web resources and services.